Meteo Giornale » Osservazioni meteo Austria » Vienna-Schwechat

ore: 17:50 - Osservazioni Meteo Vienna-Schwechat
Lat. 48° 7' N Lon. 16° 34' E Alt. 183 metri s.l.m.

sereno Europe/Vienna

16 °C

Sereno

Temp. 24 Ore

12 °C

18 °C

Nord

5.5 Km/h

Dew point 11 °C

Umidità 72 %

Visibilità  10 Km

Il sole sorge alle ore 07:16

Il sole tramonta alle ore 18:01

Data e Ora Cielo e Fenomeni T °C DP °C Um. % Pres. hPa Vis. km Vento km/h
Oggi h: 17:50 sereno Sereno 16 11 72 1018 10 N 5.5
Oggi h: 17:20 sereno Sereno 17 11 67 1018 10 N 5.5
Oggi h: 16:50 sereno Sereno 18 12 67 1018 10 N 7.4
Oggi h: 16:20 sereno Sereno 18 11 63 1018 10 N/NO 7.4
Oggi h: 15:50 sereno Sereno 18 11 63 1018 10 N 7.4
Oggi h: 15:20 sereno Sereno 18 11 63 1018 10 N/NO 9.3
Oggi h: 14:50 sereno Sereno 18 11 63 1018 10 N/NO 7.4
Oggi h: 13:50 sereno Sereno 18 10 59 1019 10 N 3.7
Oggi h: 13:20 sereno Sereno 17 10 63 1019 10 N 5.5
Oggi h: 12:50 sereno Sereno 18 10 59 1019 10 N 3.7
Oggi h: 12:20 sereno Sereno 16 10 67 1019 10 N 3.7
Oggi h: 11:50 sereno Sereno 15 10 72 1019 10 N 1.8
Oggi h: 11:20 sereno Sereno 15 10 72 1020 10 N 3.7
Oggi h: 10:50 sereno Sereno 14 11 82 1019 10 N 5.5
Oggi h: 10:20 molto_nuvoloso Molto Nuvoloso 13 11 87 1020 9 N/NO 7.4
Oggi h: 09:50 sereno Sereno 13 10 81 1020 10 N/NO 11.1
Oggi h: 09:20 sereno Sereno 13 10 81 1019 10 N/NO 7.4
Oggi h: 08:50 sereno Sereno 12 10 87 1019 10 N 9.3
Oggi h: 08:20 sereno Sereno 12 9 81 1019 10 N 7.4
Oggi h: 07:50 sereno Sereno 12 9 81 1019 10 N/NO 7.4
Oggi h: 07:20 sereno Sereno 12 9 81 1018 10 N 5.5
Oggi h: 06:50 sereno Sereno 13 9 76 1018 10 N 3.7
Oggi h: 06:20 sereno Sereno 14 9 71 1018 10 N 1.8
Oggi h: 05:50 sereno Sereno 14 9 71 1018 10 E 7.4
Oggi h: 05:20 sereno Sereno 14 9 71 1018 10 E 11.1
Oggi h: 04:50 sereno Sereno 14 9 71 1018 10 E 7.4
Oggi h: 04:20 sereno Sereno 15 9 67 1018 10 SE 11.1
Oggi h: 03:50 sereno Sereno 15 12 82 1018 10 E/SE 13
Oggi h: 03:20 sereno Sereno 15 12 82 1018 10 SE 16.7
Oggi h: 02:50 sereno Sereno 15 11 76 1018 10 E/SE 11.1
Oggi h: 02:20 sereno Sereno 15 11 76 1019 10 E/SE 11.1
Oggi h: 01:50 sereno Sereno 15 11 76 1019 10 E 11.1
Oggi h: 01:20 sereno Sereno 16 11 72 1019 10 SE 14.8
Oggi h: 00:50 sereno Sereno 15 11 76 1019 10 E/SE 11.1
Oggi h: 00:20 sereno Sereno 15 11 76 1019 10 SE 13
Ieri h: 23:50 nuvoloso_piovaschi Debole Rovescio di Pioggia 15 11 76 1019 10 E/SE 7.4
Ieri h: 23:20 nuvoloso_piovaschi Debole Rovescio di Pioggia 15 12 82 1019 10 E/SE 7.4
Ieri h: 22:50 sereno Sereno 15 12 82 1019 10 N 3.7
Ieri h: 22:20 nuvoloso_piovaschi Debole Rovescio di Pioggia 15 12 82 1019 10 N 5.5
Ieri h: 21:50 nuvoloso_piovaschi Debole Rovescio di Pioggia 16 12 77 1020 10 SE 11.1
Ieri h: 21:20 sereno Sereno 16 11 72 1019 10 E/SE 7.4
Ieri h: 20:50 sereno Sereno 16 11 72 1019 10 E/SE 7.4
Ieri h: 20:20 nuvoloso_piovaschi Debole Rovescio di Pioggia 17 11 67 1019 10 E/SE 7.4
Ieri h: 19:50 nuvoloso_piovaschi Debole Rovescio di Pioggia 17 11 67 1019 10 E/SE 7.4
Ieri h: 19:20 sereno Sereno 16 11 72 1019 10 N 5.5